N9XP-9 Weather Reports


time (UTC)temp
F
wind
direction
speed
knots
gust
knots
rain 1hr
in
rain 24hr
in
rain mn
in
humidity
%
barometer
mb
20260502163030 51 244 0.9 7.0 0.00 0.00 0.00 43 1021.0
20260502161528 51 289 1.7 6.1 0.00 0.00 0.00 41 1021.2
20260502151520 49 349 0.9 4.3 0.00 0.01 0.00 48 1021.4
20260502123038 33 352 0.0 0.0 0.00 0.01 0.00 98 1021.4
20260502121536 32 124 0.0 0.0 0.00 0.01 0.00 98 1021.3
20260502114528 29 29 0.0 0.0 0.00 0.01 0.00 97 1021.0
20260502113027 29 28 0.0 0.0 0.00 0.01 0.00 97 1020.8
20260502111526 28 30 0.0 0.9 0.00 0.01 0.00 97 1020.7
20260502110026 28 58 0.0 0.0 0.00 0.01 0.00 97 1020.7
20260502104524 28 58 0.0 0.0 0.00 0.01 0.00 97 1020.7
20260502103053 28 58 0.0 0.0 0.00 0.01 0.00 97 1020.6
20260502101529 28 58 0.0 0.0 0.00 0.01 0.00 96 1020.6
20260502091520 28 60 0.0 0.0 0.00 0.01 0.00 96 1020.7
20260502071516 29 73 0.0 0.0 0.00 0.03 0.00 95 1020.5
20260502070013 29 71 0.0 0.0 0.00 0.03 0.00 95 1020.6
20260502064505 30 71 0.0 0.0 0.00 0.03 0.00 95 1020.6
20260502063003 30 76 0.0 0.0 0.00 0.03 0.00 95 1020.8
20260502061504 30 79 0.0 0.0 0.00 0.03 0.00 94 1020.9
20260502060001 30 79 0.0 0.0 0.00 0.03 0.00 94 1020.9
20260502054625 30 78 0.0 0.0 0.00 0.03 0.00 94 1020.9
20260502053115 30 78 0.0 0.0 0.00 0.03 0.00 94 1021.0
20260502051557 31 77 0.0 0.0 0.00 0.03 0.00 93 1020.9
20260502050054 31 77 0.0 0.0 0.00 0.03 0.00 93 1021.0
20260502044552 31 79 0.0 0.0 0.00 0.10 0.03 92 1021.0
20260502043057 32 75 0.0 0.0 0.00 0.10 0.03 91 1021.0
20260502041547 32 76 0.0 0.0 0.00 0.10 0.03 90 1020.8
20260502040051 33 79 0.0 0.0 0.00 0.10 0.03 90 1020.8
20260502034544 33 77 0.0 0.0 0.00 0.11 0.03 88 1020.7
20260502033043 34 78 0.0 0.0 0.00 0.11 0.03 87 1020.6
20260502031538 35 78 0.0 0.9 0.00 0.11 0.03 86 1020.6
20260502030043 35 78 0.0 0.0 0.00 0.11 0.03 85 1020.5
20260502024533 35 79 0.0 0.9 0.00 0.14 0.03 84 1020.4
20260502023031 36 33 0.0 0.9 0.00 0.14 0.03 82 1020.3
20260502021530 37 26 0.0 0.9 0.00 0.14 0.03 81 1020.1
20260502020027 37 16 0.0 3.5 0.00 0.14 0.03 80 1020.0
20260502014523 38 7 0.0 4.3 0.00 0.21 0.03 79 1019.8
20260502013022 39 360 0.9 7.0 0.00 0.21 0.03 73 1019.7
20260502011519 39 34 0.0 3.5 0.00 0.21 0.03 75 1019.3
20260502010021 40 6 0.9 4.3 0.00 0.21 0.03 74 1019.1
20260502004517 41 354 2.6 8.7 0.00 0.22 0.03 73 1019.0
20260502003015 43 11 0.9 5.2 0.00 0.22 0.03 73 1018.8
20260502001514 43 353 0.9 3.5 0.00 0.22 0.03 71 1018.7
20260502000016 45 360 0.9 3.5 0.00 0.22 0.03 70 1018.6
20260501234512 46 4 0.9 4.3 0.00 0.26 0.03 68 1018.6
20260501233012 47 96 0.9 4.3 0.00 0.26 0.03 66 1018.3
20260501231511 47 19 0.9 4.3 0.00 0.26 0.03 68 1018.5
20260501230015 46 96 0.0 3.5 0.00 0.26 0.03 70 1018.6
20260501224511 46 20 0.0 2.6 0.00 0.28 0.03 71 1018.6
20260501223030 45 13 0.0 4.3 0.00 0.28 0.03 71 1018.7
20260501221510 46 115 0.0 7.8 0.00 0.28 0.03 71 1018.6
20260501220009 46 3 0.0 5.2 0.00 0.28 0.03 70 1018.6
20260501214521 47 44 0.0 2.6 0.00 0.36 0.03 66 1018.5
20260501213006 47 46 0.0 4.3 0.00 0.36 0.03 66 1018.4
20260501211506 48 27 0.0 1.7 0.00 0.36 0.03 66 1018.3
20260501210006 48 317 0.9 4.3 0.00 0.36 0.03 64 1018.2
20260501204506 48 308 0.9 3.5 0.00 0.36 0.03 55 1018.2
20260501203007 48 355 1.7 3.5 0.00 0.36 0.03 53 1018.3
20260501201503 47 330 1.7 7.0 0.00 0.36 0.03 53 1018.4
20260501200002 48 348 0.9 5.2 0.00 0.36 0.03 52 1018.4
20260501194601 48 356 0.9 7.0 0.00 0.36 0.03 50 1018.2
20260501193059 49 359 0.9 3.5 0.00 0.36 0.03 51 1018.1
20260501191605 49 204 0.0 5.2 0.00 0.36 0.03 50 1018.0
20260501190058 49 4 0.9 5.2 0.00 0.36 0.03 50 1017.9
20260501184602 49 8 2.6 6.1 0.00 0.36 0.03 49 1017.9
20260501183055 49 354 2.6 7.0 0.00 0.36 0.03 50 1017.7
20260501181617 49 333 3.5 7.8 0.00 0.36 0.03 47 1017.6
20260501180100 49 12 0.9 8.7 0.00 0.36 0.03 53 1017.7
20260501174552 49 346 1.7 7.8 0.00 0.36 0.03 52 1017.6